Danbury, CT

5:12 AM EDT on July 26, 2017 (GMT -0400)
Danbury Municipal

Weather History for KDXR - December, 2013

Change the Weather History Date:

Saturday, December 28, 2013

  Actual Average Record
Temperature  
Mean Temperature 37 °F -  
Max Temperature 50 °F 35 °F 61 °F (2008)
Min Temperature 24 °F 20 °F -6 °F (1950)
Degree Days  
Heating Degree Days 28    
Moisture  
Dew Point 21 °F    
Average Humidity 61    
Maximum Humidity 78    
Minimum Humidity 33    
Precipitation  
Precipitation 0.00 in - - ()
Sea Level Pressure  
Sea Level Pressure 30.15 in    
Wind  
Wind Speed 4 mph (WSW)    
Max Wind Speed 15 mph    
Max Gust Speed 23 mph    
Visibility 10 miles    
Events      
Averages and records for this station are not official NWS values.
T = Trace of Precipitation, MM = Missing Value Source: NWS Daily Summary

Daily Weather History Graph

Daily Weather History Graph

Search for Another Location

Airport or City:

Trip Planner

Search our weather history database for the weather conditions in past years. The results will help you decide how hot, cold, wet, or windy it might be!

Date:

Astronomy

Dec. 28, 2013 Rise Set
Actual Time 7:19 AM EST 4:32 PM EST
Civil Twilight 6:48 AM EST 5:03 PM EST
Nautical Twilight 6:13 AM EST 5:38 PM EST
Astronomical Twilight 5:39 AM EST 6:11 PM EST
Moon 2:51 AM EST (12/28) 1:22 PM EST (12/28)
Length of Visible Light 10h 15m
Length of Day
9h 12m
Waning Crescent, 19% of the Moon is Illuminated
Dec 28
Waning Crescent
Jan 1
New
Jan 7
First Quarter
Jan 15
Full
Jan 24
Last Quarter

Hourly Weather History & Observations

Time (EST) Temp. Windchill Dew Point Humidity Pressure Visibility Wind Dir Wind Speed Gust Speed Precip Events Conditions
12:53 AM 28.0 °F 24.2 °F 19.0 °F 69% 30.27 in 10.0 mi SW 3.5 mph - N/A   Clear
1:53 AM 27.0 °F 21.6 °F 19.0 °F 72% 30.25 in 10.0 mi WSW 4.6 mph - N/A   Clear
2:53 AM 26.1 °F - 19.0 °F 75% 30.25 in 10.0 mi Calm Calm - N/A   Clear
3:53 AM 30.0 °F 25.2 °F 19.9 °F 66% 30.24 in 10.0 mi WSW 4.6 mph - N/A   Clear
4:53 AM 30.9 °F - 19.9 °F 64% 30.22 in 10.0 mi Calm Calm - N/A   Clear
5:53 AM 27.0 °F - 19.0 °F 72% 30.20 in 10.0 mi Calm Calm - N/A   Clear
6:53 AM 24.1 °F - 18.0 °F 77% 30.20 in 8.0 mi Calm Calm - N/A   Clear
7:53 AM 32.0 °F 24.8 °F 19.0 °F 59% 30.19 in 10.0 mi SW 8.1 mph - N/A   Clear
8:53 AM 37.9 °F 30.0 °F 19.9 °F 48% 30.19 in 10.0 mi WSW 12.7 mph - N/A   Partly Cloudy
9:53 AM 39.9 °F 31.8 °F 19.9 °F 45% 30.18 in 10.0 mi SW 15.0 mph 23.0 mph N/A   Overcast
10:53 AM 41.0 °F 34.3 °F 19.0 °F 41% 30.17 in 10.0 mi WSW 11.5 mph 21.9 mph N/A   Overcast
11:53 AM 44.1 °F 37.1 °F 21.0 °F 40% 30.13 in 10.0 mi WSW 15.0 mph 23.0 mph N/A   Mostly Cloudy
12:53 PM 46.0 °F 40.2 °F 21.0 °F 37% 30.09 in 10.0 mi WSW 12.7 mph 19.6 mph N/A   Clear
1:53 PM 48.0 °F - 21.9 °F 36% 30.07 in 10.0 mi WSW 10.4 mph - N/A   Clear
2:53 PM 50.0 °F - 21.9 °F 33% 30.06 in 10.0 mi WSW 5.8 mph - N/A   Clear
3:53 PM 46.9 °F - 24.1 °F 41% 30.07 in 10.0 mi WSW 5.8 mph - N/A   Clear
4:53 PM 35.1 °F - 24.1 °F 64% 30.09 in 10.0 mi Calm Calm - N/A   Clear
5:53 PM 34.0 °F - 24.1 °F 67% 30.11 in 10.0 mi Calm Calm - N/A   Clear
6:53 PM 30.9 °F - 23.0 °F 72% 30.13 in 10.0 mi Calm Calm - N/A   Clear
7:53 PM 30.0 °F - 23.0 °F 75% 30.12 in 10.0 mi Calm Calm - N/A   Clear
8:53 PM 28.9 °F - 23.0 °F 78% 30.11 in 10.0 mi Calm Calm - N/A   Clear
9:53 PM 28.0 °F - 21.9 °F 78% 30.10 in 10.0 mi Calm Calm - N/A   Clear
10:53 PM 28.0 °F - 21.9 °F 78% 30.09 in 10.0 mi Calm Calm - N/A   Clear
11:53 PM 28.0 °F 24.2 °F 21.9 °F 78% 30.07 in 10.0 mi West 3.5 mph - N/A   Clear